Location: site
(53.0000°N, 23.0500°E)
Time: 16:03:43
(UTC+01:00)

SAOCOM 1-A - Pass Details

Date: 18 January 2020
Orbit: 621 x 623 km, 97.9° (Epoch: 25 February)

Event Time Altitude Azimuth Distance (km) Brightness Sun altitude
Rises 04:12:14 0° 151° (SSE) 2,896 ? -29.2°
Reaches altitude 10° 04:14:26 10° 147° (SSE) 1,993 ? -28.8°
Enters shadow 04:18:08 51° 99° (E) 793 ? -28.3°
